Starlink 31083

operational
NORAD ID: 58670 Int'l Des: 2023-211 Owner: SPXS Country: US Constellation: starlink
LEOCIRCULAR

Starlink 31083について

説明を読み込み中...

リアルタイム位置

3D地球を読み込み中...

次回通過

高度履歴

Altitude vs Time

uPlot chart will show altitude changes over time

軌道要素

1 58670U 23211D 25353.23126894 -.00004180 00000-0 -14237-3 0 9993
2 58670 42.9999 179.3146 0001369 265.7485 94.3211 15.27598539110160
Epoch: Dec 19, 2025 • Age: 12 hours

現在のステータス

高度 483.2 km
速度 7.63 km/s
衛星直下点 -3.29°S, 11.39°E
打ち上げ日 Dec 29, 2023
運用期間 1.9 years
タイプ internet

技術仕様

分類 Payload
質量 730.00 kg
乾燥質量 700.00 kg
総質量 730.00 kg
長さ 0.30 m
直径 4.10 m
スパン 29.00 m
形状 Box + pan
製造者 SPXS
バスタイプ Starlink V2M
フェーズステータス In Orbit
所有者/国 SPXS/US

大規模コンステレーション

Loading constellations...